Regional Weather Roundup
Issued by NWS

Home | Current Version | Previous Version | Text Only | Print | Product List | Glossary Off
Versions: 1 2 3 4 5 6 7 8 9 10 11 12 13 14 15 16 17 18 19 20 21 22 23 24 25 26 27 28 29 30 31 32 33 34 35 36 37 38 39 40 41 42 43 44 45 46 47 48 49 50

000
ASUS43 KLOT 221510
RWRIL

ILLINOIS REGIONAL WEATHER ROUNDUP
NATIONAL WEATHER SERVICE CHICAGO/ROMEOVILLE IL
1000 AM CDT MON SEP 22 2014

NOTE: "FAIR" INDICATES FEW OR NO CLOUDS BELOW 12,000 FEET WITH NO
SIGNIFICANT WEATHER AND/OR OBSTRUCTIONS TO VISIBILITY.

* THESE STATIONS ARE NOT UNDER NWS QUALITY CONTROL. THEY ALSO MAY NOT
  REPORT WEATHER SUCH AS PRECIPITATION OR FOG.

ILZ001-002-007-009-015-016-024-221600-
NORTHWEST ILLINOIS

CITY           SKY/WX    TMP DP  RH WIND       PRES   REMARKS
MOLINE         SUNNY     56  45  66 CALM      30.33R
STERLING*      SUNNY     59  41  51 CALM      30.32S
SAVANNA*       SUNNY     56  45  64 SW3       30.32R
$$

ILZ003-004-008-010-011-017-018-221600-
NORTH CENTRAL ILLINOIS

CITY           SKY/WX    TMP DP  RH WIND       PRES   REMARKS
ROCKFORD       SUNNY     56  44  64 W3        30.33R
FREEPORT*      SUNNY     52  46  79 W3        30.33R
ROCHELLE*      SUNNY     54  42  66 CALM      30.31R
DE KALB*       SUNNY     52  42  67 N3        30.32R
PERU*          SUNNY     55  40  58 NE3       30.32S
$$

ILZ005-006-012>014-019>023-221600-
NORTHEAST ILLINOIS

CITY           SKY/WX    TMP DP  RH WIND       PRES   REMARKS
CHICAGO-OHARE  MOSUNNY   53  41  63 VRB3      30.29R
CHICAGO-MIDWAY MOSUNNY   58  46  64 VRB5      30.29R
AURORA         SUNNY     54  42  64 CALM      30.30R
LANSING*       MOSUNNY   57  47  68 N9G17     30.28R
JOLIET*        SUNNY     55  44  64 NE3       30.31R
WAUKEGAN       SUNNY     54  40  59 W6        30.28R
DUPAGE AIRPORT SUNNY     57  43  59 VRB3      30.29R
KANKAKEE*      MOSUNNY   56  46  68 N5        30.30R
WHEELING       SUNNY     57  43  59 CALM      30.30R
MORRIS*        SUNNY     56  47  70 CALM      30.30R
ROMEOVILLE*    SUNNY     55  45  67 NW3       30.30R
NORTHERLY ISL    N/A     57  44  62 MISG        N/A
$$

LMZ740>746-221600-
SOUTHERN LAKE MICHIGAN

STATION/POSITION SKY/WX   TEMP    WIND        PRES    VSBY  WAVE
                          AIR SEA DIR/SP/G                  HT/PER
                          (F)     (DEG/KT/KT) (MB)    (MI)  (FT/S)
SOUTHERN BUOY              54 62  310/  8/ 12 1025.3R         4/ 6
WAUKEGAN HARBOR            54     330/  5/  8   N/A
HARRISON CRIB              53     330/ 11/ 14   N/A
BURNHAM HARBOR             56     330/  4/  9   N/A
CALUMET HARBOR             55     300/  5/  9 1024.2R
MICHIGAN CITY              56      CALM  /  2   N/A
MICHIGAN CITY 6N           54 64  350/  2/  8   N/A           5/ 8
ST. JOSEPH                 55 65  360/ 10/ 14   N/A           4/ 6
$$

ILZ025>027-034>036-040-047-049-050-058-095>099-221600-
WEST-CENTRAL ILLINOIS

CITY           SKY/WX    TMP DP  RH WIND       PRES   REMARKS
QUINCY         SUNNY     60  49  66 E3        30.33R
GALESBURG*     SUNNY     61  51  69 CALM      30.33R
MACOMB*        SUNNY     57  49  74 CALM      30.35R
JACKSONVILLE*  SUNNY     61  51  70 CALM      30.33R
PITTSFIELD*    SUNNY     62  50  65 CALM      30.33S
$$

ILZ028>032-037-038-041>044-048-051>054-059>061-221600-
CENTRAL ILLINOIS

CITY           SKY/WX    TMP DP  RH WIND       PRES   REMARKS
PONTIAC        SUNNY     57  46  67 N5        30.31R
DECATUR        SUNNY     60  47  61 N7        30.31R
PEORIA         SUNNY     58  47  66 CALM      30.32R
LACON*         SUNNY     55  43  65 N3        30.32R
LINCOLN*       SUNNY     60  46  58 CALM      30.30R
SPRINGFIELD    SUNNY     61  50  67 NE5       30.32R
TAYLORVILLE    SUNNY     59  50  72 NE3       30.31R
$$

ILZ033-039-045-046-055>057-062-063-221600-
EAST-CENTRAL ILLINOIS

CITY           SKY/WX    TMP DP  RH WIND       PRES   REMARKS
CHAMPAIGN      MOSUNNY   58  48  69 NE6       30.30R
DANVILLE*      SUNNY     56  45  66 NE6       30.26S
RANTOUL*       SUNNY     58  47  67 N3        30.30S
MATTOON        MOSUNNY   58  49  72 NE10      30.29R
PARIS*         SUNNY     58  48  67 N6        30.29F
$$

ILZ079-100>102-221600-
SOUTHWEST ILLINOIS

CITY           SKY/WX    TMP DP  RH WIND       PRES   REMARKS
ALTON          SUNNY     63  52  67 CALM      30.31
BELLEVILLE     SUNNY     62  54  75 CALM      30.29R
CAHOKIA*       SUNNY     63  52  67 N3        30.30S
SPARTA*        SUNNY     60  53  77 CALM      30.30S
$$

ILZ064>066-069>071-074>076-080>082-084>086-088>090-092>094-221600-
SOUTH-CENTRAL ILLINOIS

CITY           SKY/WX    TMP DP  RH WIND       PRES   REMARKS
CARBONDALE     SUNNY     62  52  69 VRB6      30.28S
CAIRO*         SUNNY     66  55  67 NE8       30.26R
EFFINGHAM*     SUNNY     60  46  59 NE3       30.30R
MARION         MOSUNNY   61  54  77 N6        30.30R
MT. VERNON     SUNNY     61  48  63 N8        30.30S
CENTRALIA*     MOSUNNY   62  50  66 NE5       30.29S
SALEM*         SUNNY     62  53  72 E6        30.30S
METROPOLIS*    SUNNY     64  54  68 N6        30.25S
$$

ILZ067-068-072-073-078-083-087-091-221600-
SOUTHEAST ILLINOIS

CITY           SKY/WX    TMP DP  RH WIND       PRES   REMARKS
LAWRENCEVILLE  MOSUNNY   59  50  72 N9        30.30R
FLORA*         SUNNY     60  47  62 N8        30.30R
FAIRFIELD*     MOSUNNY  N/A N/A N/A N7        30.29R
HARRISBURG*    SUNNY     61  52  72 N7        30.29R
ROBINSON*      SUNNY     61  52  73 N9        30.30R
CARMI*         MOSUNNY   64  51  62 NE6       30.28R
$$

ABBREVIATIONS USED IN REMARKS
   TC - TEMPERATURE IN CELSIUS
  WCI - WIND CHILL INDEX
   HX - HEAT INDEX
  VSB - VISIBILITY
$$



USA.gov is the U.S. government's official web portal to all federal, state and local government web resources and services.